User: anonymous   Login
Location: Unspecified
(0.0000°N, 0.0000°E)
Time: 00:48:59
(UTC+00:00)
Language:

NOSS 2-3 (E) - Orbit

View from above orbital plane
View from above orbital plane
View from above satellite
View from above satellite

Ground track
Ground track

The orbit data is extracted from the following two-line orbital elements,

1 23936U 96029E   17110.07638419 0.00000000  00000-0  00000-0 0    00
2 23936  63.3740 202.7738 0598000  12.4831 347.5169 13.40867098    09
Epoch (UTC): 20 April 2017 01:49:59
Eccentricity: 0.0598000
inclination: 63.3740°
perigee height: 658 km
apogee height: 1553 km
right ascension of ascending node: 202.7738°
argument of perigee: 12.4831°
revolutions per day: 13.40867098
mean anomaly at epoch: 347.5169°
orbit number at epoch: 0

The dashed part of the orbit path shows where the satellite is in the earth's shadow,  

DLR